Year,Month,Day,Hour,Minute,Value (Times are PST for windspeed in km/hr)
2012,08,23,00,00,6.80
2012,08,23,00,01,8.50
2012,08,23,00,02,8.20
2012,08,23,00,03,6.80
2012,08,23,00,04,5.80
2012,08,23,00,05,5.60
2012,08,23,00,06,10.40
2012,08,23,00,07,10.30
2012,08,23,00,08,9.50
2012,08,23,00,09,8.10
2012,08,23,00,10,8.00
2012,08,23,00,11,7.60
2012,08,23,00,12,5.50
2012,08,23,00,13,7.00
2012,08,23,00,14,11.90
2012,08,23,00,15,9.80
2012,08,23,00,16,10.70
2012,08,23,00,17,7.90
2012,08,23,00,18,6.30
2012,08,23,00,19,5.10
2012,08,23,00,20,9.60
2012,08,23,00,21,3.80
2012,08,23,00,22,4.50
2012,08,23,00,23,8.70
2012,08,23,00,24,5.10
2012,08,23,00,25,4.30
2012,08,23,00,26,2.70
2012,08,23,00,27,3.70
2012,08,23,00,28,5.20
2012,08,23,00,29,2.60
2012,08,23,00,30,1.50
2012,08,23,00,31,3.70
2012,08,23,00,32,2.50
2012,08,23,00,33,7.10
2012,08,23,00,34,7.60
2012,08,23,00,35,10.40
2012,08,23,00,36,5.80
2012,08,23,00,37,12.00
2012,08,23,00,38,7.70
2012,08,23,00,39,5.10
2012,08,23,00,40,6.90
2012,08,23,00,41,7.60
2012,08,23,00,42,3.30
2012,08,23,00,43,3.90
2012,08,23,00,44,3.50
2012,08,23,00,45,3.50
2012,08,23,00,46,5.30
2012,08,23,00,47,4.60
2012,08,23,00,48,4.70
2012,08,23,00,49,5.00
2012,08,23,00,50,7.70
2012,08,23,00,51,12.40
2012,08,23,00,52,9.40
2012,08,23,00,53,8.60
2012,08,23,00,54,5.30
2012,08,23,00,55,3.30
2012,08,23,00,56,5.50
2012,08,23,00,57,5.00
2012,08,23,00,58,8.90
2012,08,23,00,59,6.10
2012,08,23,01,00,5.00
2012,08,23,01,01,7.60
2012,08,23,01,02,4.50
2012,08,23,01,03,3.70
2012,08,23,01,04,6.40
2012,08,23,01,05,7.00
2012,08,23,01,06,6.10
2012,08,23,01,07,5.00
2012,08,23,01,08,3.90
2012,08,23,01,09,7.80
2012,08,23,01,10,9.90
2012,08,23,01,11,6.00
2012,08,23,01,12,8.20
2012,08,23,01,13,6.70
2012,08,23,01,14,6.40
2012,08,23,01,15,8.10
2012,08,23,01,16,6.80
2012,08,23,01,17,6.40
2012,08,23,01,18,3.50
2012,08,23,01,19,1.40
2012,08,23,01,20,5.20
2012,08,23,01,21,6.00
2012,08,23,01,22,1.80
2012,08,23,01,23,5.40
2012,08,23,01,24,4.60
2012,08,23,01,25,0.90
2012,08,23,01,26,0.20
2012,08,23,01,27,1.30
2012,08,23,01,28,2.50
2012,08,23,01,29,1.60
2012,08,23,01,30,5.60
2012,08,23,01,31,6.80
2012,08,23,01,32,4.70
2012,08,23,01,33,5.70
2012,08,23,01,34,5.10
2012,08,23,01,35,5.20
2012,08,23,01,36,3.90
2012,08,23,01,37,1.00
2012,08,23,01,38,2.70
2012,08,23,01,39,3.10
2012,08,23,01,40,1.30
2012,08,23,01,41,6.60
2012,08,23,01,42,4.90
2012,08,23,01,43,6.50
2012,08,23,01,44,2.10
2012,08,23,01,45,4.70
2012,08,23,01,46,3.50
2012,08,23,01,47,3.90
2012,08,23,01,48,1.70
2012,08,23,01,49,5.60
2012,08,23,01,50,1.40
2012,08,23,01,51,3.10
2012,08,23,01,52,1.20
2012,08,23,01,53,1.30
2012,08,23,01,54,2.40
2012,08,23,01,55,3.30
2012,08,23,01,56,2.50
2012,08,23,01,57,3.30
2012,08,23,01,58,2.70
2012,08,23,01,59,1.80
2012,08,23,02,00,3.80
2012,08,23,02,01,2.00
2012,08,23,02,02,5.00
2012,08,23,02,03,2.00
2012,08,23,02,04,6.70
2012,08,23,02,05,4.30
2012,08,23,02,06,1.80
2012,08,23,02,07,4.30
2012,08,23,02,08,2.10
2012,08,23,02,09,1.00
2012,08,23,02,10,0.50
2012,08,23,02,11,0.60
2012,08,23,02,12,0.60
2012,08,23,02,13,2.30
2012,08,23,02,14,1.40
2012,08,23,02,15,2.70
2012,08,23,02,16,1.80
2012,08,23,02,17,1.50
2012,08,23,02,18,2.20
2012,08,23,02,19,2.60
2012,08,23,02,20,1.60
2012,08,23,02,21,0.90
2012,08,23,02,22,2.20
2012,08,23,02,23,2.30
2012,08,23,02,24,2.00
2012,08,23,02,25,2.50
2012,08,23,02,26,1.80
2012,08,23,02,27,0.50
2012,08,23,02,28,0.10
2012,08,23,02,29,1.90
2012,08,23,02,30,5.50
2012,08,23,02,31,4.60
2012,08,23,02,32,5.70
2012,08,23,02,33,4.70
2012,08,23,02,34,7.80
2012,08,23,02,35,7.90
2012,08,23,02,36,7.40
2012,08,23,02,37,8.50
2012,08,23,02,38,8.50
2012,08,23,02,39,7.20
2012,08,23,02,40,7.10
2012,08,23,02,41,6.80
2012,08,23,02,42,6.90
2012,08,23,02,43,4.90
2012,08,23,02,44,4.60
2012,08,23,02,45,6.80
2012,08,23,02,46,5.70
2012,08,23,02,47,5.20
2012,08,23,02,48,5.20
2012,08,23,02,49,3.30
2012,08,23,02,50,1.40
2012,08,23,02,51,5.10
2012,08,23,02,52,5.60
2012,08,23,02,53,4.10
2012,08,23,02,54,4.60
2012,08,23,02,55,4.30
2012,08,23,02,56,1.90
2012,08,23,02,57,4.20
2012,08,23,02,58,6.50
2012,08,23,02,59,3.80
2012,08,23,03,00,6.40
2012,08,23,03,01,6.80
2012,08,23,03,02,3.90
2012,08,23,03,03,4.20
2012,08,23,03,04,3.90
2012,08,23,03,05,6.90
2012,08,23,03,06,3.70
2012,08,23,03,07,5.50
2012,08,23,03,08,5.00
2012,08,23,03,09,6.50
2012,08,23,03,10,5.80
2012,08,23,03,11,5.90
2012,08,23,03,12,7.20
2012,08,23,03,13,6.00
2012,08,23,03,14,1.20
2012,08,23,03,15,3.10
2012,08,23,03,16,0.50
2012,08,23,03,17,0.40
2012,08,23,03,18,1.70
2012,08,23,03,19,3.30
2012,08,23,03,20,2.30
2012,08,23,03,21,2.80
2012,08,23,03,22,1.40
2012,08,23,03,23,1.20
2012,08,23,03,24,0.20
2012,08,23,03,25,4.30
2012,08,23,03,26,1.30
2012,08,23,03,27,1.40
2012,08,23,03,28,2.80
2012,08,23,03,29,4.00
2012,08,23,03,30,3.60
2012,08,23,03,31,2.60
2012,08,23,03,32,5.60
2012,08,23,03,33,4.50
2012,08,23,03,34,4.50
2012,08,23,03,35,5.70
2012,08,23,03,36,5.30
2012,08,23,03,37,3.70
2012,08,23,03,38,4.30
2012,08,23,03,39,2.60
2012,08,23,03,40,3.60
2012,08,23,03,41,4.20
2012,08,23,03,42,6.10
2012,08,23,03,43,5.60
2012,08,23,03,44,5.90
2012,08,23,03,45,6.40
2012,08,23,03,46,6.20
2012,08,23,03,47,6.30
2012,08,23,03,48,9.40
2012,08,23,03,49,7.70
2012,08,23,03,50,5.00
2012,08,23,03,51,7.90
2012,08,23,03,52,5.40
2012,08,23,03,53,4.50
2012,08,23,03,54,3.10
2012,08,23,03,55,1.00
2012,08,23,03,56,1.60
2012,08,23,03,57,0.20
2012,08,23,03,58,0.60
2012,08,23,03,59,2.90
2012,08,23,04,00,3.10
2012,08,23,04,01,1.00
2012,08,23,04,02,1.80
2012,08,23,04,03,0.70
2012,08,23,04,04,3.20
2012,08,23,04,05,1.20
2012,08,23,04,06,2.10
2012,08,23,04,07,2.30
2012,08,23,04,08,1.90
2012,08,23,04,09,4.10
2012,08,23,04,10,6.50
2012,08,23,04,11,4.90
2012,08,23,04,12,2.80
2012,08,23,04,13,4.70
2012,08,23,04,14,4.80
2012,08,23,04,15,3.80
2012,08,23,04,16,5.80
2012,08,23,04,17,5.10
2012,08,23,04,18,5.30
2012,08,23,04,19,6.40
2012,08,23,04,20,2.70
2012,08,23,04,21,6.50
2012,08,23,04,22,7.90
2012,08,23,04,23,6.00
2012,08,23,04,24,7.30
2012,08,23,04,25,4.50
2012,08,23,04,26,5.60
2012,08,23,04,27,5.60
2012,08,23,04,28,2.70
2012,08,23,04,29,1.50
2012,08,23,04,30,1.90
2012,08,23,04,31,1.40
2012,08,23,04,32,0.90
2012,08,23,04,33,2.60
2012,08,23,04,34,5.50
2012,08,23,04,35,4.50
2012,08,23,04,36,4.70
2012,08,23,04,37,1.90
2012,08,23,04,38,4.60
2012,08,23,04,39,4.10
2012,08,23,04,40,3.50
2012,08,23,04,41,4.30
2012,08,23,04,42,2.70
2012,08,23,04,43,3.30
2012,08,23,04,44,3.10
2012,08,23,04,45,3.10
2012,08,23,04,46,3.30
2012,08,23,04,47,1.80
2012,08,23,04,48,2.50
2012,08,23,04,49,0.80
2012,08,23,04,50,1.30
2012,08,23,04,51,6.80
2012,08,23,04,52,5.00
2012,08,23,04,53,2.80
2012,08,23,04,54,2.20
2012,08,23,04,55,3.50
2012,08,23,04,56,2.50
2012,08,23,04,57,2.90
2012,08,23,04,58,3.20
2012,08,23,04,59,1.90
2012,08,23,05,00,2.30
2012,08,23,05,01,0.20
2012,08,23,05,02,2.10
2012,08,23,05,03,5.50
2012,08,23,05,04,2.70
2012,08,23,05,05,2.50
2012,08,23,05,06,1.90
2012,08,23,05,07,5.20
2012,08,23,05,08,2.20
2012,08,23,05,09,3.00
2012,08,23,05,10,2.50
2012,08,23,05,11,4.70
2012,08,23,05,12,5.00
2012,08,23,05,13,5.10
2012,08,23,05,14,5.60
2012,08,23,05,15,1.90
2012,08,23,05,16,4.60
2012,08,23,05,17,4.90
2012,08,23,05,18,4.70
2012,08,23,05,19,4.20
2012,08,23,05,20,5.60
2012,08,23,05,21,5.30
2012,08,23,05,22,6.10
2012,08,23,05,23,3.00
2012,08,23,05,24,8.00
2012,08,23,05,25,4.00
2012,08,23,05,26,4.70
2012,08,23,05,27,7.60
2012,08,23,05,28,6.90
2012,08,23,05,29,5.40
2012,08,23,05,30,4.80
2012,08,23,05,31,5.30
2012,08,23,05,32,4.00
2012,08,23,05,33,4.70
2012,08,23,05,34,4.40
2012,08,23,05,35,6.20
2012,08,23,05,36,7.00
2012,08,23,05,37,5.80
2012,08,23,05,38,6.60
2012,08,23,05,39,6.70
2012,08,23,05,40,6.90
2012,08,23,05,41,5.70
2012,08,23,05,42,5.30
2012,08,23,05,43,1.90
2012,08,23,05,44,5.40
2012,08,23,05,45,6.00
2012,08,23,05,46,1.40
2012,08,23,05,47,4.70
2012,08,23,05,48,6.40
2012,08,23,05,49,5.80
2012,08,23,05,50,5.10
2012,08,23,05,51,4.50
2012,08,23,05,52,3.50
2012,08,23,05,53,2.00
2012,08,23,05,54,0.00
2012,08,23,05,55,2.50
2012,08,23,05,56,6.40
2012,08,23,05,57,7.00
2012,08,23,05,58,2.40
2012,08,23,05,59,1.40
2012,08,23,06,00,1.10
2012,08,23,06,01,3.10
2012,08,23,06,02,3.20
2012,08,23,06,03,2.90
2012,08,23,06,04,0.30
2012,08,23,06,05,5.10
2012,08,23,06,06,2.30
2012,08,23,06,07,5.40
2012,08,23,06,08,7.20
2012,08,23,06,09,6.60
2012,08,23,06,10,5.70
2012,08,23,06,11,4.10
2012,08,23,06,12,6.00
2012,08,23,06,13,5.30
2012,08,23,06,14,5.60
2012,08,23,06,15,5.40
2012,08,23,06,16,5.80
2012,08,23,06,17,5.30
2012,08,23,06,18,4.40
2012,08,23,06,19,3.50
2012,08,23,06,20,2.10
2012,08,23,06,21,0.60
2012,08,23,06,22,5.10
2012,08,23,06,23,4.20
2012,08,23,06,24,4.20
2012,08,23,06,25,3.50
2012,08,23,06,26,3.50
2012,08,23,06,27,0.30
2012,08,23,06,28,1.00
2012,08,23,06,29,3.40
2012,08,23,06,30,3.30
2012,08,23,06,31,2.40
2012,08,23,06,32,0.60
2012,08,23,06,33,0.20
2012,08,23,06,34,0.40
2012,08,23,06,35,0.30
2012,08,23,06,36,0.10
2012,08,23,06,37,0.10
2012,08,23,06,38,0.00
2012,08,23,06,39,0.00
2012,08,23,06,40,0.00
2012,08,23,06,41,0.00
2012,08,23,06,42,0.00
2012,08,23,06,43,0.00
2012,08,23,06,44,0.00
2012,08,23,06,45,0.00
2012,08,23,06,46,0.00
2012,08,23,06,47,0.00
2012,08,23,06,48,0.00
2012,08,23,06,49,0.00
2012,08,23,06,50,0.00
2012,08,23,06,51,0.10
2012,08,23,06,52,0.20
2012,08,23,06,53,0.30
2012,08,23,06,54,0.30
2012,08,23,06,55,0.50
2012,08,23,06,56,0.20
2012,08,23,06,57,0.80
2012,08,23,06,58,1.00
2012,08,23,06,59,1.90
2012,08,23,07,00,1.00
2012,08,23,07,01,0.20
2012,08,23,07,02,0.10
2012,08,23,07,03,0.10
2012,08,23,07,04,0.10
2012,08,23,07,05,0.00
2012,08,23,07,06,0.00
2012,08,23,07,07,0.00
2012,08,23,07,08,0.00
2012,08,23,07,09,0.00
2012,08,23,07,10,0.00
2012,08,23,07,11,0.00
2012,08,23,07,12,0.00
2012,08,23,07,13,0.00
2012,08,23,07,14,0.00
2012,08,23,07,15,0.30
2012,08,23,07,16,0.10
2012,08,23,07,17,0.00
2012,08,23,07,18,0.00
2012,08,23,07,19,0.00
2012,08,23,07,20,0.00
2012,08,23,07,21,0.00
2012,08,23,07,22,0.20
2012,08,23,07,23,0.00
2012,08,23,07,24,0.10
2012,08,23,07,25,0.50
2012,08,23,07,26,0.20
2012,08,23,07,27,1.40
2012,08,23,07,28,0.40
2012,08,23,07,29,2.20
2012,08,23,07,30,0.90
2012,08,23,07,31,0.20
2012,08,23,07,32,1.60
2012,08,23,07,33,0.60
2012,08,23,07,34,0.00
2012,08,23,07,35,1.80
2012,08,23,07,36,2.70
2012,08,23,07,37,0.70
2012,08,23,07,38,2.50
2012,08,23,07,39,2.80
2012,08,23,07,40,0.30
2012,08,23,07,41,0.00
2012,08,23,07,42,0.00
2012,08,23,07,43,0.00
2012,08,23,07,44,0.00
2012,08,23,07,45,0.00
2012,08,23,07,46,0.00
2012,08,23,07,47,0.00
2012,08,23,07,48,0.00
2012,08,23,07,49,0.00
2012,08,23,07,50,0.00
2012,08,23,07,51,1.10
2012,08,23,07,52,1.50
2012,08,23,07,53,0.40
2012,08,23,07,54,2.20
2012,08,23,07,55,2.40
2012,08,23,07,56,0.40
2012,08,23,07,57,0.90
2012,08,23,07,58,0.30
2012,08,23,07,59,0.70
2012,08,23,08,00,0.00
2012,08,23,08,01,0.50
2012,08,23,08,02,1.90
2012,08,23,08,03,0.30
2012,08,23,08,04,0.60
2012,08,23,08,05,0.00
2012,08,23,08,06,1.10
2012,08,23,08,07,0.00
2012,08,23,08,08,0.90
2012,08,23,08,09,1.20
2012,08,23,08,10,0.30
2012,08,23,08,11,1.00
2012,08,23,08,12,0.10
2012,08,23,08,13,0.00
2012,08,23,08,14,0.10
2012,08,23,08,15,0.00
2012,08,23,08,16,0.20
2012,08,23,08,17,0.10
2012,08,23,08,18,0.20
2012,08,23,08,19,2.00
2012,08,23,08,20,0.00
2012,08,23,08,21,0.00
2012,08,23,08,22,0.00
2012,08,23,08,23,0.30
2012,08,23,08,24,0.00
2012,08,23,08,25,0.00
2012,08,23,08,26,0.00
2012,08,23,08,27,2.10
2012,08,23,08,28,2.30
2012,08,23,08,29,2.10
2012,08,23,08,30,1.30
2012,08,23,08,31,1.30
2012,08,23,08,32,0.60
2012,08,23,08,33,0.00
2012,08,23,08,34,0.00
2012,08,23,08,35,0.10
2012,08,23,08,36,0.10
2012,08,23,08,37,1.00
2012,08,23,08,38,0.30
2012,08,23,08,39,4.60
2012,08,23,08,40,3.90
2012,08,23,08,41,5.80
2012,08,23,08,42,5.80
2012,08,23,08,43,7.50
2012,08,23,08,44,11.10
2012,08,23,08,45,12.30
2012,08,23,08,46,6.80
2012,08,23,08,47,3.50
2012,08,23,08,48,8.60
2012,08,23,08,49,8.50
2012,08,23,08,50,6.80
2012,08,23,08,51,10.30
2012,08,23,08,52,11.00
2012,08,23,08,53,9.10
2012,08,23,08,54,6.00
2012,08,23,08,55,3.10
2012,08,23,08,56,2.90
2012,08,23,08,57,2.80
2012,08,23,08,58,6.50
2012,08,23,08,59,6.40
2012,08,23,09,00,10.10
2012,08,23,09,01,7.50
2012,08,23,09,02,8.50
2012,08,23,09,03,11.20
2012,08,23,09,04,9.70
2012,08,23,09,05,10.60
2012,08,23,09,06,8.60
2012,08,23,09,07,11.30
2012,08,23,09,08,9.00
2012,08,23,09,09,11.50
2012,08,23,09,10,8.50
2012,08,23,09,11,9.10
2012,08,23,09,12,6.50
2012,08,23,09,13,8.70
2012,08,23,09,14,6.80
2012,08,23,09,15,6.70
2012,08,23,09,16,4.80
2012,08,23,09,17,10.00
2012,08,23,09,18,7.70
2012,08,23,09,19,4.30
2012,08,23,09,20,4.10
2012,08,23,09,21,5.00
2012,08,23,09,22,12.60
2012,08,23,09,23,8.30
2012,08,23,09,24,8.80
2012,08,23,09,25,16.10
2012,08,23,09,26,11.00
2012,08,23,09,27,9.30
2012,08,23,09,28,12.10
2012,08,23,09,29,11.70
2012,08,23,09,30,10.10
2012,08,23,09,31,8.00
2012,08,23,09,32,6.50
2012,08,23,09,33,6.70
2012,08,23,09,34,9.40
2012,08,23,09,35,9.90
2012,08,23,09,36,6.50
2012,08,23,09,37,6.70
2012,08,23,09,38,10.00
2012,08,23,09,39,5.80
2012,08,23,09,40,5.60
2012,08,23,09,41,8.10
2012,08,23,09,42,8.50
2012,08,23,09,43,10.20
2012,08,23,09,44,7.40
2012,08,23,09,45,14.10
2012,08,23,09,46,7.80
2012,08,23,09,47,5.90
2012,08,23,09,48,5.80
2012,08,23,09,49,2.30
2012,08,23,09,50,6.80
2012,08,23,09,51,8.70
2012,08,23,09,52,7.10
2012,08,23,09,53,5.60
2012,08,23,09,54,3.70
2012,08,23,09,55,8.00
2012,08,23,09,56,7.60
2012,08,23,09,57,6.40
2012,08,23,09,58,1.00
2012,08,23,09,59,11.30
2012,08,23,10,00,10.00
2012,08,23,10,01,8.70
2012,08,23,10,02,9.20
2012,08,23,10,03,8.70
2012,08,23,10,04,6.80
2012,08,23,10,05,3.70
2012,08,23,10,06,7.60
2012,08,23,10,07,7.50
2012,08,23,10,08,9.50
2012,08,23,10,09,4.20
2012,08,23,10,10,6.20
2012,08,23,10,11,7.00
2012,08,23,10,12,4.50
2012,08,23,10,13,3.30
2012,08,23,10,14,5.60
2012,08,23,10,15,7.50
2012,08,23,10,16,11.60
2012,08,23,10,17,11.40
2012,08,23,10,18,13.00
2012,08,23,10,19,12.30
2012,08,23,10,20,7.00
2012,08,23,10,21,5.60
2012,08,23,10,22,3.10
2012,08,23,10,23,11.10
2012,08,23,10,24,7.90
2012,08,23,10,25,6.20
2012,08,23,10,26,6.00
2012,08,23,10,27,4.80
2012,08,23,10,28,9.60
2012,08,23,10,29,9.20
2012,08,23,10,30,9.40
2012,08,23,10,31,10.60
2012,08,23,10,32,11.50
2012,08,23,10,33,4.10
2012,08,23,10,34,6.80
2012,08,23,10,35,5.70
2012,08,23,10,36,17.10
2012,08,23,10,37,17.50
2012,08,23,10,38,11.10
2012,08,23,10,39,8.70
2012,08,23,10,40,11.00
2012,08,23,10,41,12.80
2012,08,23,10,42,14.20
2012,08,23,10,43,9.80
2012,08,23,10,44,10.50
2012,08,23,10,45,12.50
2012,08,23,10,46,8.90
2012,08,23,10,47,14.30
2012,08,23,10,48,15.60
2012,08,23,10,49,9.70
2012,08,23,10,50,14.60
2012,08,23,10,51,17.30
2012,08,23,10,52,14.40
2012,08,23,10,53,11.20
2012,08,23,10,54,8.90
2012,08,23,10,55,11.30
2012,08,23,10,56,11.70
2012,08,23,10,57,7.40
2012,08,23,10,58,16.70
2012,08,23,10,59,8.40
2012,08,23,11,00,9.90
2012,08,23,11,01,7.10
2012,08,23,11,02,5.40
2012,08,23,11,03,11.30
2012,08,23,11,04,11.60
2012,08,23,11,05,11.40
2012,08,23,11,06,10.10
2012,08,23,11,07,8.20
2012,08,23,11,08,8.70
2012,08,23,11,09,10.80
2012,08,23,11,10,13.40
2012,08,23,11,11,10.50
2012,08,23,11,12,17.80
2012,08,23,11,13,15.40
2012,08,23,11,14,11.40
2012,08,23,11,15,13.00
2012,08,23,11,16,14.00
2012,08,23,11,17,13.40
2012,08,23,11,18,16.00
2012,08,23,11,19,20.40
2012,08,23,11,20,13.80
2012,08,23,11,21,14.30
2012,08,23,11,22,10.50
2012,08,23,11,23,6.70
2012,08,23,11,24,7.30
2012,08,23,11,25,5.70
2012,08,23,11,26,7.60
2012,08,23,11,27,3.40
2012,08,23,11,28,1.30
2012,08,23,11,29,1.70
2012,08,23,11,30,7.40
2012,08,23,11,31,9.60
2012,08,23,11,32,15.10
2012,08,23,11,33,9.80
2012,08,23,11,34,7.80
2012,08,23,11,35,6.70
2012,08,23,11,36,14.90
2012,08,23,11,37,19.90
2012,08,23,11,38,7.50
2012,08,23,11,39,11.80
2012,08,23,11,40,15.40
2012,08,23,11,41,16.50
2012,08,23,11,42,13.80
2012,08,23,11,43,18.50
2012,08,23,11,44,15.30
2012,08,23,11,45,16.30
2012,08,23,11,46,16.10
2012,08,23,11,47,13.10
2012,08,23,11,48,19.00
2012,08,23,11,49,13.10
2012,08,23,11,50,17.60
2012,08,23,11,51,19.90
2012,08,23,11,52,15.60
2012,08,23,11,53,12.70
2012,08,23,11,54,14.00
2012,08,23,11,55,17.80
2012,08,23,11,56,12.70
2012,08,23,11,57,14.50
2012,08,23,11,58,14.20
2012,08,23,11,59,17.40
2012,08,23,12,00,18.70
2012,08,23,12,01,14.60
2012,08,23,12,02,14.00
2012,08,23,12,03,20.40
2012,08,23,12,04,18.80
2012,08,23,12,05,21.20
2012,08,23,12,06,21.40
2012,08,23,12,07,16.90
2012,08,23,12,08,16.20
2012,08,23,12,09,12.30
2012,08,23,12,10,20.10
2012,08,23,12,11,15.40
2012,08,23,12,12,15.90
2012,08,23,12,13,10.90
2012,08,23,12,14,12.70
2012,08,23,12,15,22.30
2012,08,23,12,16,19.60
2012,08,23,12,17,17.70
2012,08,23,12,18,22.00
2012,08,23,12,19,20.50
2012,08,23,12,20,22.70
2012,08,23,12,21,19.20
2012,08,23,12,22,13.60
2012,08,23,12,23,22.60
2012,08,23,12,24,19.70
2012,08,23,12,25,15.60
2012,08,23,12,26,16.70
2012,08,23,12,27,24.80
2012,08,23,12,28,20.40
2012,08,23,12,29,23.70
2012,08,23,12,30,18.40
2012,08,23,12,31,8.10
2012,08,23,12,32,10.10
2012,08,23,12,33,15.50
2012,08,23,12,34,21.00
2012,08,23,12,35,16.90
2012,08,23,12,36,12.00
2012,08,23,12,37,19.20
2012,08,23,12,38,14.90
2012,08,23,12,39,14.20
2012,08,23,12,40,22.40
2012,08,23,12,41,13.30
2012,08,23,12,42,17.10
2012,08,23,12,43,22.10
2012,08,23,12,44,20.40
2012,08,23,12,45,18.10
2012,08,23,12,46,14.40
2012,08,23,12,47,16.60
2012,08,23,12,48,13.80
2012,08,23,12,49,13.70
2012,08,23,12,50,15.80
2012,08,23,12,51,13.80
2012,08,23,12,52,16.70
2012,08,23,12,53,18.80
2012,08,23,12,54,13.70
2012,08,23,12,55,12.80
2012,08,23,12,56,11.10
2012,08,23,12,57,9.40
2012,08,23,12,58,12.50
2012,08,23,12,59,7.80
2012,08,23,13,00,14.90
2012,08,23,13,01,16.40
2012,08,23,13,02,22.80
2012,08,23,13,03,21.00
2012,08,23,13,04,15.30
2012,08,23,13,05,16.10
2012,08,23,13,06,21.50
2012,08,23,13,07,19.20
2012,08,23,13,08,22.40
2012,08,23,13,09,20.40
2012,08,23,13,10,17.40
2012,08,23,13,11,20.80
2012,08,23,13,12,22.40
2012,08,23,13,13,18.20
2012,08,23,13,14,13.10
2012,08,23,13,15,16.20
2012,08,23,13,16,16.80
2012,08,23,13,17,8.10
2012,08,23,13,18,10.10
2012,08,23,13,19,17.80
2012,08,23,13,20,17.30
2012,08,23,13,21,11.30
2012,08,23,13,22,11.70
2012,08,23,13,23,7.40
2012,08,23,13,24,13.30
2012,08,23,13,25,12.30
2012,08,23,13,26,21.00
2012,08,23,13,27,18.70
2012,08,23,13,28,18.30
2012,08,23,13,29,19.50
2012,08,23,13,30,13.80
2012,08,23,13,31,17.50
2012,08,23,13,32,15.90
2012,08,23,13,33,23.30
2012,08,23,13,34,8.00
2012,08,23,13,35,21.80
2012,08,23,13,36,20.20
2012,08,23,13,37,23.60
2012,08,23,13,38,15.80
2012,08,23,13,39,7.50
2012,08,23,13,40,15.00
2012,08,23,13,41,16.40
2012,08,23,13,42,15.90
2012,08,23,13,43,21.00
2012,08,23,13,44,15.40
2012,08,23,13,45,14.80
2012,08,23,13,46,15.60
2012,08,23,13,47,23.50
2012,08,23,13,48,17.20
2012,08,23,13,49,20.00
2012,08,23,13,50,18.70
2012,08,23,13,51,13.20
2012,08,23,13,52,24.10
2012,08,23,13,53,25.70
2012,08,23,13,54,21.80
2012,08,23,13,55,25.10
2012,08,23,13,56,22.90
2012,08,23,13,57,10.70
2012,08,23,13,58,21.40
2012,08,23,13,59,18.30
2012,08,23,14,00,23.00
2012,08,23,14,01,22.80
2012,08,23,14,02,23.70
2012,08,23,14,03,19.50
2012,08,23,14,04,18.90
2012,08,23,14,05,14.50
2012,08,23,14,06,20.90
2012,08,23,14,07,14.70
2012,08,23,14,08,16.30
2012,08,23,14,09,20.20
2012,08,23,14,10,22.30
2012,08,23,14,11,15.10
2012,08,23,14,12,14.60
2012,08,23,14,13,25.60
2012,08,23,14,14,18.80
2012,08,23,14,15,14.50
2012,08,23,14,16,15.90
2012,08,23,14,17,12.10
2012,08,23,14,18,20.20
2012,08,23,14,19,17.90
2012,08,23,14,20,16.60
2012,08,23,14,21,11.00
2012,08,23,14,22,15.00
2012,08,23,14,23,11.70
2012,08,23,14,24,26.20
2012,08,23,14,25,20.00
2012,08,23,14,26,17.30
2012,08,23,14,27,26.10
2012,08,23,14,28,21.40
2012,08,23,14,29,17.70
2012,08,23,14,30,19.30
2012,08,23,14,31,13.00
2012,08,23,14,32,15.00
2012,08,23,14,33,18.40
2012,08,23,14,34,17.90
2012,08,23,14,35,19.30
2012,08,23,14,36,16.90
2012,08,23,14,37,15.90
2012,08,23,14,38,13.40
2012,08,23,14,39,13.90
2012,08,23,14,40,11.70
2012,08,23,14,41,10.10
2012,08,23,14,42,19.70
2012,08,23,14,43,12.80
2012,08,23,14,44,21.40
2012,08,23,14,45,19.70
2012,08,23,14,46,23.40
2012,08,23,14,47,20.40
2012,08,23,14,48,20.50
2012,08,23,14,49,21.70
2012,08,23,14,50,23.70
2012,08,23,14,51,20.30
2012,08,23,14,52,22.30
2012,08,23,14,53,20.90
2012,08,23,14,54,30.30
2012,08,23,14,55,20.50
2012,08,23,14,56,24.80
2012,08,23,14,57,33.20
2012,08,23,14,58,31.90
2012,08,23,14,59,23.60
2012,08,23,15,00,29.00
2012,08,23,15,01,23.70
2012,08,23,15,02,27.80
2012,08,23,15,03,24.60
2012,08,23,15,04,25.70
2012,08,23,15,05,19.60
2012,08,23,15,06,19.10
2012,08,23,15,07,21.60
2012,08,23,15,08,24.60
2012,08,23,15,09,24.10
2012,08,23,15,10,27.60
2012,08,23,15,11,22.40
2012,08,23,15,12,25.10
2012,08,23,15,13,21.10
2012,08,23,15,14,17.10
2012,08,23,15,15,19.20
2012,08,23,15,16,20.70
2012,08,23,15,17,15.70
2012,08,23,15,18,22.10
2012,08,23,15,19,19.90
2012,08,23,15,20,14.30
2012,08,23,15,21,17.80
2012,08,23,15,22,16.00
2012,08,23,15,23,17.50
2012,08,23,15,24,23.00
2012,08,23,15,25,23.20
2012,08,23,15,26,24.70
2012,08,23,15,27,20.70
2012,08,23,15,28,19.60
2012,08,23,15,29,21.00
2012,08,23,15,30,14.90
2012,08,23,15,31,10.20
2012,08,23,15,32,11.30
2012,08,23,15,33,20.90
2012,08,23,15,34,20.90
2012,08,23,15,35,18.60
2012,08,23,15,36,16.00
2012,08,23,15,37,20.90
2012,08,23,15,38,17.80
2012,08,23,15,39,20.20
2012,08,23,15,40,9.50
2012,08,23,15,41,11.50
2012,08,23,15,42,15.80
2012,08,23,15,43,19.20
2012,08,23,15,44,16.60
2012,08,23,15,45,15.00
2012,08,23,15,46,10.00
2012,08,23,15,47,17.90
2012,08,23,15,48,19.50
2012,08,23,15,49,27.50
2012,08,23,15,50,26.90
2012,08,23,15,51,23.30
2012,08,23,15,52,21.60
2012,08,23,15,53,23.80
2012,08,23,15,54,22.00
2012,08,23,15,55,19.20
2012,08,23,15,56,18.60
2012,08,23,15,57,31.90
2012,08,23,15,58,27.20
2012,08,23,15,59,30.70
2012,08,23,16,00,24.90
2012,08,23,16,01,22.30
2012,08,23,16,02,26.30
2012,08,23,16,03,25.50
2012,08,23,16,04,29.00
2012,08,23,16,05,23.30
2012,08,23,16,06,22.90
2012,08,23,16,07,18.30
2012,08,23,16,08,21.70
2012,08,23,16,09,20.80
2012,08,23,16,10,21.70
2012,08,23,16,11,20.50
2012,08,23,16,12,23.40
2012,08,23,16,13,17.30
2012,08,23,16,14,22.60
2012,08,23,16,15,20.40
2012,08,23,16,16,15.10
2012,08,23,16,17,20.00
2012,08,23,16,18,20.80
2012,08,23,16,19,16.90
2012,08,23,16,20,14.60
2012,08,23,16,21,14.40
2012,08,23,16,22,20.50
2012,08,23,16,23,15.50
2012,08,23,16,24,14.20
2012,08,23,16,25,15.80
2012,08,23,16,26,15.80
2012,08,23,16,27,15.40
2012,08,23,16,28,9.50
2012,08,23,16,29,21.20
2012,08,23,16,30,19.40
2012,08,23,16,31,18.60
2012,08,23,16,32,16.90
2012,08,23,16,33,11.90
2012,08,23,16,34,13.60
2012,08,23,16,35,18.90
2012,08,23,16,36,25.30
2012,08,23,16,37,16.60
2012,08,23,16,38,19.30
2012,08,23,16,39,15.00
2012,08,23,16,40,16.70
2012,08,23,16,41,22.20
2012,08,23,16,42,16.10
2012,08,23,16,43,11.20
2012,08,23,16,44,18.20
2012,08,23,16,45,26.10
2012,08,23,16,46,17.50
2012,08,23,16,47,22.10
2012,08,23,16,48,17.50
2012,08,23,16,49,18.40
2012,08,23,16,50,10.90
2012,08,23,16,51,14.90
2012,08,23,16,52,10.60
2012,08,23,16,53,14.80
2012,08,23,16,54,8.80
2012,08,23,16,55,14.30
2012,08,23,16,56,22.10
2012,08,23,16,57,17.40
2012,08,23,16,58,22.50
2012,08,23,16,59,18.80
2012,08,23,17,00,22.00
2012,08,23,17,01,21.30
2012,08,23,17,02,12.10
2012,08,23,17,03,15.20
2012,08,23,17,04,18.20
2012,08,23,17,05,17.20
2012,08,23,17,06,14.00
2012,08,23,17,07,21.00
2012,08,23,17,08,25.40
2012,08,23,17,09,17.50
2012,08,23,17,10,16.90
2012,08,23,17,11,16.40
2012,08,23,17,12,14.70
2012,08,23,17,13,13.30
2012,08,23,17,14,14.90
2012,08,23,17,15,17.30
2012,08,23,17,16,21.70
2012,08,23,17,17,14.50
2012,08,23,17,18,13.40
2012,08,23,17,19,20.00
2012,08,23,17,20,12.40
2012,08,23,17,21,19.90
2012,08,23,17,22,18.90
2012,08,23,17,23,26.20
2012,08,23,17,24,17.60
2012,08,23,17,25,17.90
2012,08,23,17,26,24.10
2012,08,23,17,27,13.80
2012,08,23,17,28,25.20
2012,08,23,17,29,16.30
2012,08,23,17,30,11.70
2012,08,23,17,31,13.30
2012,08,23,17,32,11.10
2012,08,23,17,33,19.20
2012,08,23,17,34,13.90
2012,08,23,17,35,9.70
2012,08,23,17,36,10.70
2012,08,23,17,37,12.70
2012,08,23,17,38,23.80
2012,08,23,17,39,19.20
2012,08,23,17,40,16.60
2012,08,23,17,41,10.70
2012,08,23,17,42,9.50
2012,08,23,17,43,17.00
2012,08,23,17,44,20.80
2012,08,23,17,45,17.90
2012,08,23,17,46,18.20
2012,08,23,17,47,19.50